Date,TemperatureHighF,TemperatureAvgF,TemperatureLowF,DewpointHighF,DewpointAvgF,DewpointLowF,HumidityHigh,HumidityAvg,HumidityLow,PressureMaxIn,PressureMinIn,WindSpeedMaxMPH,WindSpeedAvgMPH,GustSpeedMaxMPH,PrecipitationSumIn
2014-1-1,64,46,33,37,32,28,81,60,29,0.00,40.00,5,3,0,0.00
2014-1-2,65,48,35,38,34,29,81,61,32,0.00,40.00,7,3,0,0.00
2014-1-3,63,48,35,39,35,30,82,63,38,0.00,40.00,5,3,0,0.00
2014-1-4,65,48,36,37,33,-100,81,61,33,0.00,40.00,7,3,0,0.00
2014-1-5,66,48,35,37,34,30,81,61,31,0.00,40.00,6,4,0,0.00
2014-1-6,66,48,35,37,33,28,78,58,29,0.00,40.00,6,3,0,0.00
2014-1-7,61,48,39,38,34,31,74,60,36,0.00,40.00,8,3,0,0.00
2014-1-8,60,46,34,38,33,29,82,62,40,0.00,40.00,12,4,0,0.00
2014-1-9,57,45,35,43,38,31,85,77,60,0.00,40.00,4,3,0,0.00
2014-1-10,62,49,41,42,39,36,85,69,47,0.00,40.00,7,4,0,0.00
2014-1-11,64,49,38,43,37,-100,85,67,42,0.00,40.00,5,3,0,0.00
2014-1-12,56,46,39,43,40,35,88,78,58,0.00,40.00,11,4,0,0.00
2014-1-13,61,48,34,41,38,31,89,71,45,0.00,40.00,6,4,0,0.00
2014-1-14,62,46,33,41,37,30,89,71,43,0.00,40.00,6,3,0,0.00
2014-1-15,67,48,35,41,36,31,85,66,37,0.00,40.00,6,3,0,0.00
2014-1-16,71,50,36,40,35,30,79,60,28,0.00,40.00,7,3,0,0.00
2014-1-17,74,51,35,37,32,28,75,52,18,0.00,40.00,8,3,0,0.00
2014-1-18,69,50,34,39,30,-100,74,51,26,0.00,40.00,9,4,0,0.00
2014-1-19,69,51,35,41,34,27,73,54,30,0.00,40.00,6,3,0,0.00
2014-1-20,63,46,35,39,33,28,79,63,37,0.00,40.00,4,3,0,0.00
2014-1-21,65,49,36,39,34,28,75,58,29,0.00,40.00,8,3,0,0.00
2014-1-22,67,50,41,38,34,31,77,56,29,0.00,40.00,8,3,0,0.00
2014-1-23,69,53,39,35,29,25,60,42,19,0.00,40.00,8,3,0,0.00
2014-1-24,74,55,45,36,32,27,66,46,17,0.00,40.00,10,5,0,0.00
2014-1-25,72,59,47,36,26,-100,51,34,18,0.00,40.00,7,4,0,0.00
2014-1-26,65,53,44,39,32,26,64,45,22,0.00,40.00,4,3,0,0.00
2014-1-27,68,52,40,35,30,28,63,45,24,0.00,40.00,9,4,0,0.00
2014-1-28,68,53,40,38,33,30,68,49,29,0.00,40.00,6,3,0,0.00
2014-1-29,69,55,43,39,34,31,66,47,27,0.00,40.00,10,4,0,0.00
2014-1-30,55,52,48,50,44,35,91,74,50,0.00,40.00,8,4,0,0.12
2014-1-31,56,50,40,49,43,36,91,79,56,0.00,40.00,10,5,0,0.32